ECHO 2 DEB (METAL OBJ), 742

Orbit data source: Space-Track

ECHO 2 DEB (METAL OBJ), 742 is space debris in LEO originally from a launch on Sat, 25 Jan 1964 UTC launched from the Air Force Western Test Range (AFWTR). Debris objects in space refer to the collection of defunct objects orbiting the Earth. Examples of debris include non-operational satellites, rocket bodies, and fragments generated from explosions, collisions, or faulty payload assembly.

Loading next visibility...
Identifier
742, 1964-004C
Orbit
LEO
Country
Flag of USUS
Related business
Manufacturer
Grummann
Mission
Spacecraft
Bus & Motor
ECHO CANISTER, Unknown motor
Mass
35 kg wet, 35 kg dry
Launch date (UTC)
1964-01-25 (62 years ago)
Launch vehicle
Unknown
Launch site
Air Force Western Test Range (AFWTR)
Object type
Payload
Rocket body
Debris
Shape & HBR
Unknown shape, 0.9 m
Radar Cross Section
Medium (>0.1 m² and <1 m²)

Expand to show TLE details & history
Last TLE update: 21 hours ago

TLE from 21 hours ago
0 ECHO 2 DEB (METAL OBJ)
1 00742U 64004C   26034.60847510  .00000077  00000-0  13570-3 0  9996
2 00742  81.4690 164.5066 0172118  91.6598 270.4249 13.26270576999654
Epoch: 2026-02-03T14:36Z
TLE epoch observation values (Epoch: 2026-02-03T14:36:12.248Z)
Latitude
-0.00003°
Longitude
171.6686°
Altitude
1,164.926 km
Speed
7.27 km/s
True Right ascension
10h 58m 01s
True Declination
0° 00' 00"
Sunlit
Object was in full shadow at epoch
Visualization orbit readout
Latitude
Unknown
Longitude
Unknown
Altitude
Unknown
Speed
Unknown
Apparent Right ascension
Unknown
Apparent Declination
Unknown
Sunlit
N/A
Visualization observer readout
Local Sidereal Time
13:20:36
Azimuth
Unknown
Elevation
Unknown
Doppler factor
Unknown
Orbital elements
Apogee altitude
1,287.852 km
Perigee altitude
1,028.426 km
Semi-major axis
7,536.276 km
Eccentricity
0.01721
Inclination
81.469°
RAAN
164.5066°
Arg. of periapsis
91.6598°
True anomaly
268.4527°
Mean anomaly
270.4249°
Eccentric anomaly
269.43878°
Mean motion
3.31748 °/min
Orbital period
108.52 mins
BSTAR
0.0001357
Loading maneuver chart data...
Computing Atmospheric mass density...
Loading historical data...
Loading historical data...
Loading historical data...
Loading historical data...
Loading historical data...
Loading historical data...
Loading historical data...

Documentation

Showing up to 5 results
|